TimeEDT,TemperatureF,Dew PointF,Humidity,Sea Level PressureIn,VisibilityMPH,Wind Direction,Wind SpeedMPH,Gust SpeedMPH,PrecipitationIn,Events,Conditions,WindDirDegrees,DateUTC
12:52 AM,66.9,66.9,100,29.94,5.0,SE,4.6,-,0.17,Rain-Thunderstorm,Thunderstorms and Rain,130,2013-10-06 04:52:00
1:52 AM,66.0,66.0,100,29.92,5.0,East,4.6,-,0.33,Rain,Rain,100,2013-10-06 05:52:00
2:21 AM,66.2,66.2,100,29.97,1.5,South,6.9,-,0.14,Rain,Rain,190,2013-10-06 06:21:00
2:28 AM,66.2,66.2,100,29.96,2.0,SSE,3.5,-,0.34,Rain,Heavy Rain,160,2013-10-06 06:28:00
2:52 AM,66.0,66.0,100,29.91,4.0,SE,3.5,-,0.49,Rain,Rain,130,2013-10-06 06:52:00
3:38 AM,66.2,66.2,100,29.89,10.0,ESE,8.1,-,0.08,,Overcast,120,2013-10-06 07:38:00
3:48 AM,66.2,66.2,100,29.89,10.0,ESE,9.2,-,0.08,,Overcast,120,2013-10-06 07:48:00
3:52 AM,66.0,66.0,100,29.86,10.0,ESE,9.2,-,0.08,,Overcast,120,2013-10-06 07:52:00
4:52 AM,66.0,64.9,96,29.85,10.0,SE,10.4,-,N/A,,Mostly Cloudy,130,2013-10-06 08:52:00
5:52 AM,66.0,66.0,100,29.90,2.0,WSW,11.5,-,0.15,Rain,Heavy Rain,250,2013-10-06 09:52:00
5:58 AM,66.2,66.2,100,29.92,1.5,WSW,6.9,-,0.07,Rain,Heavy Rain,250,2013-10-06 09:58:00
6:10 AM,66.2,66.2,100,29.92,2.0,WSW,6.9,-,0.15,Rain,Rain,250,2013-10-06 10:10:00
6:32 AM,66.2,64.4,94,29.91,10.0,West,3.5,-,0.17,Rain,Light Rain,260,2013-10-06 10:32:00
6:52 AM,66.0,64.9,96,29.88,10.0,Calm,Calm,-,0.17,,Overcast,0,2013-10-06 10:52:00
7:43 AM,66.2,66.2,100,29.90,2.0,Calm,Calm,-,0.09,Rain,Heavy Rain,0,2013-10-06 11:43:00
7:52 AM,66.0,66.0,100,29.88,2.0,Calm,Calm,-,0.17,Rain,Rain,0,2013-10-06 11:52:00
8:52 AM,64.9,64.9,100,29.86,2.0,ESE,6.9,-,0.61,Rain,Rain,110,2013-10-06 12:52:00
9:05 AM,64.4,64.4,100,29.88,6.0,East,6.9,-,0.02,Rain,Light Rain,100,2013-10-06 13:05:00
9:52 AM,66.0,64.9,96,29.86,3.0,SE,10.4,-,0.07,Rain,Rain,140,2013-10-06 13:52:00
10:29 AM,66.2,66.2,100,29.87,2.5,South,11.5,-,0.11,Rain,Rain,170,2013-10-06 14:29:00
10:46 AM,66.2,66.2,100,29.88,5.0,South,16.1,25.3,0.13,Rain,Light Rain,180,2013-10-06 14:46:00
10:52 AM,66.9,66.0,97,29.85,5.0,South,10.4,25.3,0.15,Rain,Light Rain,170,2013-10-06 14:52:00
11:41 AM,66.2,66.2,100,29.84,10.0,South,12.7,-,0.02,Rain,Light Rain,170,2013-10-06 15:41:00
11:52 AM,66.9,66.0,97,29.83,10.0,South,15.0,19.6,0.02,Rain,Light Rain,170,2013-10-06 15:52:00
12:52 PM,70.0,66.9,90,29.80,10.0,South,17.3,-,0.00,,Overcast,170,2013-10-06 16:52:00
1:52 PM,72.0,68.0,87,29.76,10.0,South,16.1,26.5,N/A,,Overcast,180,2013-10-06 17:52:00
2:52 PM,72.0,68.0,87,29.74,10.0,South,15.0,23.0,N/A,,Overcast,190,2013-10-06 18:52:00
3:29 PM,71.6,68.0,88,29.74,2.0,SW,11.5,18.4,0.00,Rain,Rain,230,2013-10-06 19:29:00
3:35 PM,66.2,64.4,94,29.76,0.8,West,16.1,25.3,0.06,Rain,Heavy Rain,260,2013-10-06 19:35:00
3:41 PM,64.4,64.4,100,29.76,4.0,West,16.1,25.3,0.20,Rain,Light Rain,260,2013-10-06 19:41:00
3:52 PM,63.0,63.0,100,29.75,4.0,West,10.4,-,0.24,Rain,Light Rain,260,2013-10-06 19:52:00
4:52 PM,63.0,61.0,93,29.75,10.0,West,9.2,-,0.00,,Overcast,260,2013-10-06 20:52:00
5:31 PM,60.8,60.8,100,29.79,2.5,WSW,6.9,-,0.02,Rain,Rain,250,2013-10-06 21:31:00
5:50 PM,60.8,60.8,100,29.79,10.0,West,9.2,-,0.04,,Overcast,260,2013-10-06 21:50:00
5:52 PM,61.0,60.1,97,29.77,10.0,WSW,8.1,-,0.04,,Overcast,250,2013-10-06 21:52:00
6:17 PM,60.8,59.0,94,29.79,10.0,WSW,11.5,-,N/A,,Overcast,250,2013-10-06 22:17:00
6:52 PM,59.0,55.9,90,29.78,10.0,West,10.4,-,0.00,Rain,Light Rain,260,2013-10-06 22:52:00
7:52 PM,55.9,53.1,90,29.81,7.0,WSW,6.9,-,0.03,Rain,Light Rain,250,2013-10-06 23:52:00
9:52 PM,54.0,53.1,97,29.82,10.0,SW,4.6,-,0.02,,Overcast,220,2013-10-07 01:52:00
10:50 PM,53.6,53.6,100,29.84,10.0,SW,6.9,-,N/A,,Overcast,220,2013-10-07 02:50:00
10:52 PM,54.0,54.0,100,29.83,10.0,SW,6.9,-,N/A,,Overcast,220,2013-10-07 02:52:00
11:30 PM,55.4,53.6,94,29.86,10.0,SSW,8.1,-,N/A,,Overcast,210,2013-10-07 03:30:00
11:52 PM,55.0,54.0,96,29.84,10.0,West,9.2,-,N/A,,Overcast,260,2013-10-07 03:52:00